Year,Month,Day,Hour,Minute,Value (Times are PST for temperature in C)
2016,07,18,00,00,19.30
2016,07,18,00,01,19.30
2016,07,18,00,02,19.30
2016,07,18,00,03,19.30
2016,07,18,00,04,19.20
2016,07,18,00,05,19.20
2016,07,18,00,06,19.20
2016,07,18,00,07,19.20
2016,07,18,00,08,19.10
2016,07,18,00,09,19.10
2016,07,18,00,10,19.00
2016,07,18,00,11,19.00
2016,07,18,00,12,19.00
2016,07,18,00,13,18.90
2016,07,18,00,14,18.90
2016,07,18,00,15,18.90
2016,07,18,00,16,18.90
2016,07,18,00,17,18.90
2016,07,18,00,18,18.90
2016,07,18,00,19,18.90
2016,07,18,00,20,18.80
2016,07,18,00,21,18.80
2016,07,18,00,22,18.80
2016,07,18,00,23,18.80
2016,07,18,00,24,18.80
2016,07,18,00,25,18.80
2016,07,18,00,26,18.80
2016,07,18,00,27,18.80
2016,07,18,00,28,18.80
2016,07,18,00,29,18.80
2016,07,18,00,30,18.80
2016,07,18,00,31,18.80
2016,07,18,00,32,18.80
2016,07,18,00,33,18.80
2016,07,18,00,34,18.80
2016,07,18,00,35,18.80
2016,07,18,00,36,18.80
2016,07,18,00,37,18.80
2016,07,18,00,38,18.80
2016,07,18,00,39,18.80
2016,07,18,00,40,18.70
2016,07,18,00,41,18.70
2016,07,18,00,42,18.70
2016,07,18,00,43,18.70
2016,07,18,00,44,18.70
2016,07,18,00,45,18.70
2016,07,18,00,46,18.70
2016,07,18,00,47,18.60
2016,07,18,00,48,18.60
2016,07,18,00,49,18.60
2016,07,18,00,50,18.60
2016,07,18,00,51,18.60
2016,07,18,00,52,18.60
2016,07,18,00,53,18.60
2016,07,18,00,54,18.60
2016,07,18,00,55,18.50
2016,07,18,00,56,18.50
2016,07,18,00,57,18.50
2016,07,18,00,58,18.50
2016,07,18,00,59,18.50
2016,07,18,01,00,18.40
2016,07,18,01,01,18.40
2016,07,18,01,02,18.40
2016,07,18,01,03,18.40
2016,07,18,01,04,18.40
2016,07,18,01,05,18.40
2016,07,18,01,06,18.40
2016,07,18,01,07,18.40
2016,07,18,01,08,18.30
2016,07,18,01,09,18.30
2016,07,18,01,10,18.30
2016,07,18,01,11,18.30
2016,07,18,01,12,18.30
2016,07,18,01,13,18.30
2016,07,18,01,14,18.30
2016,07,18,01,15,18.30
2016,07,18,01,16,18.30
2016,07,18,01,17,18.30
2016,07,18,01,18,18.20
2016,07,18,01,19,18.20
2016,07,18,01,20,18.20
2016,07,18,01,21,18.20
2016,07,18,01,22,18.20
2016,07,18,01,23,18.20
2016,07,18,01,24,18.20
2016,07,18,01,25,18.20
2016,07,18,01,26,18.20
2016,07,18,01,27,18.10
2016,07,18,01,28,18.10
2016,07,18,01,29,18.10
2016,07,18,01,30,18.10
2016,07,18,01,31,18.10
2016,07,18,01,32,18.10
2016,07,18,01,33,18.10
2016,07,18,01,34,18.10
2016,07,18,01,35,18.00
2016,07,18,01,36,18.00
2016,07,18,01,37,18.00
2016,07,18,01,38,18.00
2016,07,18,01,39,18.00
2016,07,18,01,40,18.00
2016,07,18,01,41,18.00
2016,07,18,01,42,18.00
2016,07,18,01,43,18.00
2016,07,18,01,44,17.90
2016,07,18,01,45,17.90
2016,07,18,01,46,17.90
2016,07,18,01,47,17.90
2016,07,18,01,48,17.90
2016,07,18,01,49,17.90
2016,07,18,01,50,17.90
2016,07,18,01,51,17.90
2016,07,18,01,52,17.90
2016,07,18,01,53,17.90
2016,07,18,01,54,17.90
2016,07,18,01,55,17.90
2016,07,18,01,56,17.90
2016,07,18,01,57,17.90
2016,07,18,01,58,17.90
2016,07,18,01,59,17.90
2016,07,18,02,00,17.90
2016,07,18,02,01,17.90
2016,07,18,02,02,17.90
2016,07,18,02,03,17.90
2016,07,18,02,04,17.90
2016,07,18,02,05,17.90
2016,07,18,02,06,17.80
2016,07,18,02,07,17.80
2016,07,18,02,08,17.80
2016,07,18,02,09,17.80
2016,07,18,02,10,17.80
2016,07,18,02,11,17.80
2016,07,18,02,12,17.80
2016,07,18,02,13,17.80
2016,07,18,02,14,17.80
2016,07,18,02,15,17.80
2016,07,18,02,16,17.80
2016,07,18,02,17,17.80
2016,07,18,02,18,17.80
2016,07,18,02,19,17.80
2016,07,18,02,20,17.80
2016,07,18,02,21,17.80
2016,07,18,02,22,17.80
2016,07,18,02,23,17.80
2016,07,18,02,24,17.80
2016,07,18,02,25,17.80
2016,07,18,02,26,17.80
2016,07,18,02,27,17.80
2016,07,18,02,28,17.80
2016,07,18,02,29,17.80
2016,07,18,02,30,17.80
2016,07,18,02,31,17.80
2016,07,18,02,32,17.80
2016,07,18,02,33,17.80
2016,07,18,02,34,17.80
2016,07,18,02,35,17.80
2016,07,18,02,36,17.80
2016,07,18,02,37,17.80
2016,07,18,02,38,17.80
2016,07,18,02,39,17.80
2016,07,18,02,40,17.80
2016,07,18,02,41,17.80
2016,07,18,02,42,17.80
2016,07,18,02,43,17.80
2016,07,18,02,44,17.80
2016,07,18,02,45,17.80
2016,07,18,02,46,17.80
2016,07,18,02,47,17.80
2016,07,18,02,48,17.80
2016,07,18,02,49,17.80
2016,07,18,02,50,17.80
2016,07,18,02,51,17.80
2016,07,18,02,52,17.80
2016,07,18,02,53,17.80
2016,07,18,02,54,17.80
2016,07,18,02,55,17.80
2016,07,18,02,56,17.80
2016,07,18,02,57,17.80
2016,07,18,02,58,17.80
2016,07,18,02,59,17.80
2016,07,18,03,00,17.80
2016,07,18,03,01,17.80
2016,07,18,03,02,17.80
2016,07,18,03,03,17.80
2016,07,18,03,04,17.80
2016,07,18,03,05,17.80
2016,07,18,03,06,17.80
2016,07,18,03,07,17.80
2016,07,18,03,08,17.80
2016,07,18,03,09,17.80
2016,07,18,03,10,17.80
2016,07,18,03,11,17.80
2016,07,18,03,12,17.80
2016,07,18,03,13,17.70
2016,07,18,03,14,17.70
2016,07,18,03,15,17.70
2016,07,18,03,16,17.70
2016,07,18,03,17,17.70
2016,07,18,03,18,17.70
2016,07,18,03,19,17.70
2016,07,18,03,20,17.70
2016,07,18,03,21,17.70
2016,07,18,03,22,17.70
2016,07,18,03,23,17.70
2016,07,18,03,24,17.70
2016,07,18,03,25,17.70
2016,07,18,03,26,17.70
2016,07,18,03,27,17.70
2016,07,18,03,28,17.70
2016,07,18,03,29,17.70
2016,07,18,03,30,17.70
2016,07,18,03,31,17.70
2016,07,18,03,32,17.70
2016,07,18,03,33,17.70
2016,07,18,03,34,17.60
2016,07,18,03,35,17.60
2016,07,18,03,36,17.60
2016,07,18,03,37,17.60
2016,07,18,03,38,17.60
2016,07,18,03,39,17.60
2016,07,18,03,40,17.60
2016,07,18,03,41,17.60
2016,07,18,03,42,17.60
2016,07,18,03,43,17.60
2016,07,18,03,44,17.60
2016,07,18,03,45,17.50
2016,07,18,03,46,17.50
2016,07,18,03,47,17.50
2016,07,18,03,48,17.50
2016,07,18,03,49,17.50
2016,07,18,03,50,17.50
2016,07,18,03,51,17.60
2016,07,18,03,52,17.60
2016,07,18,03,53,17.60
2016,07,18,03,54,17.60
2016,07,18,03,55,17.60
2016,07,18,03,56,17.60
2016,07,18,03,57,17.60
2016,07,18,03,58,17.50
2016,07,18,03,59,17.50
2016,07,18,04,00,17.50
2016,07,18,04,01,17.50
2016,07,18,04,02,17.50
2016,07,18,04,03,17.50
2016,07,18,04,04,17.50
2016,07,18,04,05,17.50
2016,07,18,04,06,17.60
2016,07,18,04,07,17.60
2016,07,18,04,08,17.60
2016,07,18,04,09,17.60
2016,07,18,04,10,17.60
2016,07,18,04,11,17.60
2016,07,18,04,12,17.60
2016,07,18,04,13,17.60
2016,07,18,04,14,17.60
2016,07,18,04,15,17.50
2016,07,18,04,16,17.50
2016,07,18,04,17,17.50
2016,07,18,04,18,17.50
2016,07,18,04,19,17.50
2016,07,18,04,20,17.50
2016,07,18,04,21,17.50
2016,07,18,04,22,17.50
2016,07,18,04,23,17.50
2016,07,18,04,24,17.50
2016,07,18,04,25,17.50
2016,07,18,04,26,17.50
2016,07,18,04,27,17.50
2016,07,18,04,28,17.50
2016,07,18,04,29,17.50
2016,07,18,04,30,17.50
2016,07,18,04,31,17.50
2016,07,18,04,32,17.50
2016,07,18,04,33,17.50
2016,07,18,04,34,17.50
2016,07,18,04,35,17.50
2016,07,18,04,36,17.50
2016,07,18,04,37,17.50
2016,07,18,04,38,17.50
2016,07,18,04,39,17.50
2016,07,18,04,40,17.60
2016,07,18,04,41,17.60
2016,07,18,04,42,17.60
2016,07,18,04,43,17.60
2016,07,18,04,44,17.60
2016,07,18,04,45,17.60
2016,07,18,04,46,17.60
2016,07,18,04,47,17.60
2016,07,18,04,48,17.60
2016,07,18,04,49,17.60
2016,07,18,04,50,17.60
2016,07,18,04,51,17.60
2016,07,18,04,52,17.60
2016,07,18,04,53,17.60
2016,07,18,04,54,17.60
2016,07,18,04,55,17.60
2016,07,18,04,56,17.60
2016,07,18,04,57,17.60
2016,07,18,04,58,17.60
2016,07,18,04,59,17.60
2016,07,18,05,00,17.60
2016,07,18,05,01,17.60
2016,07,18,05,02,17.60
2016,07,18,05,03,17.60
2016,07,18,05,04,17.60
2016,07,18,05,05,17.60
2016,07,18,05,06,17.60
2016,07,18,05,07,17.60
2016,07,18,05,08,17.60
2016,07,18,05,09,17.60
2016,07,18,05,10,17.60
2016,07,18,05,11,17.60
2016,07,18,05,12,17.60
2016,07,18,05,13,17.60
2016,07,18,05,14,17.60
2016,07,18,05,15,17.60
2016,07,18,05,16,17.60
2016,07,18,05,17,17.60
2016,07,18,05,18,17.60
2016,07,18,05,19,17.60
2016,07,18,05,20,17.60
2016,07,18,05,21,17.50
2016,07,18,05,22,17.50
2016,07,18,05,23,17.50
2016,07,18,05,24,17.50
2016,07,18,05,25,17.50
2016,07,18,05,26,17.50
2016,07,18,05,27,17.50
2016,07,18,05,28,17.50
2016,07,18,05,29,17.50
2016,07,18,05,30,17.50
2016,07,18,05,31,17.50
2016,07,18,05,32,17.50
2016,07,18,05,33,17.50
2016,07,18,05,34,17.40
2016,07,18,05,35,17.40
2016,07,18,05,36,17.40
2016,07,18,05,37,17.40
2016,07,18,05,38,17.40
2016,07,18,05,39,17.40
2016,07,18,05,40,17.40
2016,07,18,05,41,17.40
2016,07,18,05,42,17.40
2016,07,18,05,43,17.50
2016,07,18,05,44,17.50
2016,07,18,05,45,17.50
2016,07,18,05,46,17.50
2016,07,18,05,47,17.50
2016,07,18,05,48,17.50
2016,07,18,05,49,17.50
2016,07,18,05,50,17.50
2016,07,18,05,51,17.50
2016,07,18,05,52,17.50
2016,07,18,05,53,17.50
2016,07,18,05,54,17.50
2016,07,18,05,55,17.50
2016,07,18,05,56,17.50
2016,07,18,05,57,17.50
2016,07,18,05,58,17.50
2016,07,18,05,59,17.60
2016,07,18,06,00,17.50
2016,07,18,06,01,17.60
2016,07,18,06,02,17.60
2016,07,18,06,03,17.60
2016,07,18,06,04,17.60
2016,07,18,06,05,17.60
2016,07,18,06,06,17.60
2016,07,18,06,07,17.60
2016,07,18,06,08,17.60
2016,07,18,06,09,17.60
2016,07,18,06,10,17.60
2016,07,18,06,11,17.70
2016,07,18,06,12,17.70
2016,07,18,06,13,17.70
2016,07,18,06,14,17.70
2016,07,18,06,15,17.70
2016,07,18,06,16,17.70
2016,07,18,06,17,17.70
2016,07,18,06,18,17.70
2016,07,18,06,19,17.70
2016,07,18,06,20,17.70
2016,07,18,06,21,17.70
2016,07,18,06,22,17.70
2016,07,18,06,23,17.70
2016,07,18,06,24,17.80
2016,07,18,06,25,17.80
2016,07,18,06,26,17.80
2016,07,18,06,27,17.80
2016,07,18,06,28,17.80
2016,07,18,06,29,17.80
2016,07,18,06,30,17.80
2016,07,18,06,31,17.80
2016,07,18,06,32,17.80
2016,07,18,06,33,17.80
2016,07,18,06,34,17.80
2016,07,18,06,35,17.80
2016,07,18,06,36,17.80
2016,07,18,06,37,17.80
2016,07,18,06,38,17.80
2016,07,18,06,39,17.80
2016,07,18,06,40,17.80
2016,07,18,06,41,17.80
2016,07,18,06,42,17.80
2016,07,18,06,43,17.80
2016,07,18,06,44,17.80
2016,07,18,06,45,17.80
2016,07,18,06,46,17.80
2016,07,18,06,47,17.80
2016,07,18,06,48,17.80
2016,07,18,06,49,17.90
2016,07,18,06,50,17.90
2016,07,18,06,51,17.90
2016,07,18,06,52,17.90
2016,07,18,06,53,17.90
2016,07,18,06,54,17.90
2016,07,18,06,55,17.90
2016,07,18,06,56,17.90
2016,07,18,06,57,17.90
2016,07,18,06,58,17.90
2016,07,18,06,59,18.00
2016,07,18,07,00,18.00
2016,07,18,07,01,18.00
2016,07,18,07,02,18.00
2016,07,18,07,03,18.00
2016,07,18,07,04,18.00
2016,07,18,07,05,18.00
2016,07,18,07,06,18.00
2016,07,18,07,07,18.00
2016,07,18,07,08,18.00
2016,07,18,07,09,18.00
2016,07,18,07,10,18.00
2016,07,18,07,11,18.10
2016,07,18,07,12,18.10
2016,07,18,07,13,18.10
2016,07,18,07,14,18.10
2016,07,18,07,15,18.10
2016,07,18,07,16,18.10
2016,07,18,07,17,18.10
2016,07,18,07,18,18.10
2016,07,18,07,19,18.10
2016,07,18,07,20,18.10
2016,07,18,07,21,18.10
2016,07,18,07,22,18.10
2016,07,18,07,23,18.10
2016,07,18,07,24,18.20
2016,07,18,07,25,18.20
2016,07,18,07,26,18.20
2016,07,18,07,27,18.20
2016,07,18,07,28,18.20
2016,07,18,07,29,18.20
2016,07,18,07,30,18.20
2016,07,18,07,31,18.20
2016,07,18,07,32,18.20
2016,07,18,07,33,18.30
2016,07,18,07,34,18.30
2016,07,18,07,35,18.30
2016,07,18,07,36,18.30
2016,07,18,07,37,18.30
2016,07,18,07,38,18.40
2016,07,18,07,39,18.40
2016,07,18,07,40,18.50
2016,07,18,07,41,18.50
2016,07,18,07,42,18.60
2016,07,18,07,43,18.70
2016,07,18,07,44,18.70
2016,07,18,07,45,18.70
2016,07,18,07,46,18.80
2016,07,18,07,47,18.80
2016,07,18,07,48,18.80
2016,07,18,07,49,18.80
2016,07,18,07,50,18.80
2016,07,18,07,51,18.80
2016,07,18,07,52,18.80
2016,07,18,07,53,18.80
2016,07,18,07,54,18.80
2016,07,18,07,55,18.80
2016,07,18,07,56,18.80
2016,07,18,07,57,18.80
2016,07,18,07,58,18.80
2016,07,18,07,59,18.80
2016,07,18,08,00,18.80
2016,07,18,08,01,18.80
2016,07,18,08,02,18.70
2016,07,18,08,03,18.70
2016,07,18,08,04,18.70
2016,07,18,08,05,18.70
2016,07,18,08,06,18.60
2016,07,18,08,07,18.60
2016,07,18,08,08,18.60
2016,07,18,08,09,18.60
2016,07,18,08,10,18.60
2016,07,18,08,11,18.60
2016,07,18,08,12,18.60
2016,07,18,08,13,18.60
2016,07,18,08,14,18.60
2016,07,18,08,15,18.60
2016,07,18,08,16,18.60
2016,07,18,08,17,18.60
2016,07,18,08,18,18.60
2016,07,18,08,19,18.60
2016,07,18,08,20,18.60
2016,07,18,08,21,18.60
2016,07,18,08,22,18.60
2016,07,18,08,23,18.60
2016,07,18,08,24,18.60
2016,07,18,08,25,18.70
2016,07,18,08,26,18.70
2016,07,18,08,27,18.70
2016,07,18,08,28,18.70
2016,07,18,08,29,18.70
2016,07,18,08,30,18.70
2016,07,18,08,31,18.80
2016,07,18,08,32,18.80
2016,07,18,08,33,18.80
2016,07,18,08,34,18.80
2016,07,18,08,35,18.80
2016,07,18,08,36,18.90
2016,07,18,08,37,18.90
2016,07,18,08,38,18.90
2016,07,18,08,39,19.00
2016,07,18,08,40,19.10
2016,07,18,08,41,19.20
2016,07,18,08,42,19.20
2016,07,18,08,43,19.30
2016,07,18,08,44,19.30
2016,07,18,08,45,19.30
2016,07,18,08,46,19.30
2016,07,18,08,47,19.30
2016,07,18,08,48,19.40
2016,07,18,08,49,19.40
2016,07,18,08,50,19.40
2016,07,18,08,51,19.50
2016,07,18,08,52,19.60
2016,07,18,08,53,19.60
2016,07,18,08,54,19.60
2016,07,18,08,55,19.60
2016,07,18,08,56,19.60
2016,07,18,08,57,19.60
2016,07,18,08,58,19.50
2016,07,18,08,59,19.50
2016,07,18,09,00,19.50
2016,07,18,09,01,19.50
2016,07,18,09,02,19.50
2016,07,18,09,03,19.60
2016,07,18,09,04,19.60
2016,07,18,09,05,19.50
2016,07,18,09,06,19.60
2016,07,18,09,07,19.50
2016,07,18,09,08,19.60
2016,07,18,09,09,19.60
2016,07,18,09,10,19.60
2016,07,18,09,11,19.60
2016,07,18,09,12,19.60
2016,07,18,09,13,19.80
2016,07,18,09,14,19.90
2016,07,18,09,15,20.00
2016,07,18,09,16,20.10
2016,07,18,09,17,20.10
2016,07,18,09,18,20.10
2016,07,18,09,19,20.20
2016,07,18,09,20,20.20
2016,07,18,09,21,20.30
2016,07,18,09,22,20.30
2016,07,18,09,23,20.30
2016,07,18,09,24,20.30
2016,07,18,09,25,20.30
2016,07,18,09,26,20.40
2016,07,18,09,27,20.40
2016,07,18,09,28,20.30
2016,07,18,09,29,20.30
2016,07,18,09,30,20.20
2016,07,18,09,31,20.20
2016,07,18,09,32,20.20
2016,07,18,09,33,20.20
2016,07,18,09,34,20.30
2016,07,18,09,35,20.40
2016,07,18,09,36,20.40
2016,07,18,09,37,20.40
2016,07,18,09,38,20.50
2016,07,18,09,39,20.60
2016,07,18,09,40,20.60
2016,07,18,09,41,20.60
2016,07,18,09,42,20.50
2016,07,18,09,43,20.50
2016,07,18,09,44,20.60
2016,07,18,09,45,20.60
2016,07,18,09,46,20.70
2016,07,18,09,47,20.70
2016,07,18,09,48,20.70
2016,07,18,09,49,20.80
2016,07,18,09,50,20.80
2016,07,18,09,51,20.80
2016,07,18,09,52,20.90
2016,07,18,09,53,20.90
2016,07,18,09,54,21.00
2016,07,18,09,55,21.10
2016,07,18,09,56,21.10
2016,07,18,09,57,21.10
2016,07,18,09,58,21.20
2016,07,18,09,59,21.30
2016,07,18,10,00,21.30
2016,07,18,10,01,21.30
2016,07,18,10,02,21.20
2016,07,18,10,03,21.20
2016,07,18,10,04,21.20
2016,07,18,10,05,21.10
2016,07,18,10,06,21.10
2016,07,18,10,07,21.10
2016,07,18,10,08,21.10
2016,07,18,10,09,21.10
2016,07,18,10,10,21.10
2016,07,18,10,11,21.20
2016,07,18,10,12,21.30
2016,07,18,10,13,21.40
2016,07,18,10,14,21.40
2016,07,18,10,15,21.50
2016,07,18,10,16,21.50
2016,07,18,10,17,21.50
2016,07,18,10,18,21.60
2016,07,18,10,19,21.70
2016,07,18,10,20,21.80
2016,07,18,10,21,21.80
2016,07,18,10,22,21.70
2016,07,18,10,23,21.60
2016,07,18,10,24,21.60
2016,07,18,10,25,21.60
2016,07,18,10,26,21.70
2016,07,18,10,27,21.80
2016,07,18,10,28,21.70
2016,07,18,10,29,21.60
2016,07,18,10,30,21.50
2016,07,18,10,31,21.40
2016,07,18,10,32,21.40
2016,07,18,10,33,21.30
2016,07,18,10,34,21.30
2016,07,18,10,35,21.30
2016,07,18,10,36,21.40
2016,07,18,10,37,21.50
2016,07,18,10,38,21.60
2016,07,18,10,39,21.80
2016,07,18,10,40,21.80
2016,07,18,10,41,21.90
2016,07,18,10,42,21.90
2016,07,18,10,43,21.90
2016,07,18,10,44,22.00
2016,07,18,10,45,22.00
2016,07,18,10,46,22.10
2016,07,18,10,47,22.10
2016,07,18,10,48,22.10
2016,07,18,10,49,22.10
2016,07,18,10,50,22.20
2016,07,18,10,51,22.20
2016,07,18,10,52,22.10
2016,07,18,10,53,22.10
2016,07,18,10,54,22.00
2016,07,18,10,55,22.10
2016,07,18,10,56,22.10
2016,07,18,10,57,22.30
2016,07,18,10,58,22.30
2016,07,18,10,59,22.30
2016,07,18,11,00,22.20
2016,07,18,11,01,22.20
2016,07,18,11,02,22.30
2016,07,18,11,03,22.30
2016,07,18,11,04,22.20
2016,07,18,11,05,22.10
2016,07,18,11,06,22.10
2016,07,18,11,07,22.10
2016,07,18,11,08,22.20
2016,07,18,11,09,22.30
2016,07,18,11,10,22.30
2016,07,18,11,11,22.30
2016,07,18,11,12,22.30
2016,07,18,11,13,22.30
2016,07,18,11,14,22.30
2016,07,18,11,15,22.40
2016,07,18,11,16,22.40
2016,07,18,11,17,22.40
2016,07,18,11,18,22.30
2016,07,18,11,19,22.30
2016,07,18,11,20,22.40
2016,07,18,11,21,22.40
2016,07,18,11,22,22.40
2016,07,18,11,23,22.40
2016,07,18,11,24,22.40
2016,07,18,11,25,22.40
2016,07,18,11,26,22.40
2016,07,18,11,27,22.40
2016,07,18,11,28,22.40
2016,07,18,11,29,22.40
2016,07,18,11,30,22.40
2016,07,18,11,31,22.30
2016,07,18,11,32,22.30
2016,07,18,11,33,22.30
2016,07,18,11,34,22.40
2016,07,18,11,35,22.40
2016,07,18,11,36,22.40
2016,07,18,11,37,22.50
2016,07,18,11,38,22.50
2016,07,18,11,39,22.60
2016,07,18,11,40,22.70
2016,07,18,11,41,22.70
2016,07,18,11,42,22.80
2016,07,18,11,43,22.90
2016,07,18,11,44,22.90
2016,07,18,11,45,22.90
2016,07,18,11,46,23.00
2016,07,18,11,47,23.00
2016,07,18,11,48,23.00
2016,07,18,11,49,23.00
2016,07,18,11,50,23.00
2016,07,18,11,51,23.00
2016,07,18,11,52,23.10
2016,07,18,11,53,23.10
2016,07,18,11,54,23.00
2016,07,18,11,55,23.00
2016,07,18,11,56,23.00
2016,07,18,11,57,23.10
2016,07,18,11,58,23.20
2016,07,18,11,59,23.30
2016,07,18,12,00,23.30
2016,07,18,12,01,23.20
2016,07,18,12,02,23.10
2016,07,18,12,03,23.10
2016,07,18,12,04,23.10
2016,07,18,12,05,23.10
2016,07,18,12,06,23.10
2016,07,18,12,07,23.10
2016,07,18,12,08,23.10
2016,07,18,12,09,23.20
2016,07,18,12,10,23.20
2016,07,18,12,11,23.10
2016,07,18,12,12,23.10
2016,07,18,12,13,23.10
2016,07,18,12,14,23.10
2016,07,18,12,15,23.10
2016,07,18,12,16,23.10
2016,07,18,12,17,23.20
2016,07,18,12,18,23.20
2016,07,18,12,19,23.10
2016,07,18,12,20,23.20
2016,07,18,12,21,23.20
2016,07,18,12,22,23.30
2016,07,18,12,23,23.40
2016,07,18,12,24,23.50
2016,07,18,12,25,23.40
2016,07,18,12,26,23.40
2016,07,18,12,27,23.40
2016,07,18,12,28,23.40
2016,07,18,12,29,23.40
2016,07,18,12,30,23.50
2016,07,18,12,31,23.50
2016,07,18,12,32,23.50
2016,07,18,12,33,23.50
2016,07,18,12,34,23.50
2016,07,18,12,35,23.40
2016,07,18,12,36,23.40
2016,07,18,12,37,23.50
2016,07,18,12,38,23.70
2016,07,18,12,39,23.80
2016,07,18,12,40,24.00
2016,07,18,12,41,24.10
2016,07,18,12,42,24.20
2016,07,18,12,43,24.30
2016,07,18,12,44,24.40
2016,07,18,12,45,24.40
2016,07,18,12,46,24.50
2016,07,18,12,47,24.50
2016,07,18,12,48,24.60
2016,07,18,12,49,24.70
2016,07,18,12,50,24.70
2016,07,18,12,51,24.70
2016,07,18,12,52,24.60
2016,07,18,12,53,24.60
2016,07,18,12,54,24.70
2016,07,18,12,55,24.70
2016,07,18,12,56,24.70
2016,07,18,12,57,24.80
2016,07,18,12,58,24.80
2016,07,18,12,59,24.80
2016,07,18,13,00,24.80
2016,07,18,13,01,24.80
2016,07,18,13,02,24.80
2016,07,18,13,03,24.80
2016,07,18,13,04,24.70
2016,07,18,13,05,24.60
2016,07,18,13,06,24.60
2016,07,18,13,07,24.50
2016,07,18,13,08,24.50
2016,07,18,13,09,24.50
2016,07,18,13,10,24.60
2016,07,18,13,11,24.60
2016,07,18,13,12,24.50
2016,07,18,13,13,24.40
2016,07,18,13,14,24.30
2016,07,18,13,15,24.20
2016,07,18,13,16,24.10
2016,07,18,13,17,24.10
2016,07,18,13,18,24.10
2016,07,18,13,19,24.00
2016,07,18,13,20,23.90
2016,07,18,13,21,23.90
2016,07,18,13,22,23.90
2016,07,18,13,23,23.80
2016,07,18,13,24,23.80
2016,07,18,13,25,23.70
2016,07,18,13,26,23.70
2016,07,18,13,27,23.60
2016,07,18,13,28,23.60
2016,07,18,13,29,23.50
2016,07,18,13,30,23.40
2016,07,18,13,31,23.40
2016,07,18,13,32,23.30
2016,07,18,13,33,23.30
2016,07,18,13,34,23.20
2016,07,18,13,35,23.10
2016,07,18,13,36,23.00
2016,07,18,13,37,22.90
2016,07,18,13,38,22.90
2016,07,18,13,39,22.80
2016,07,18,13,40,22.70
2016,07,18,13,41,22.70
2016,07,18,13,42,22.60
2016,07,18,13,43,22.60
2016,07,18,13,44,22.60
2016,07,18,13,45,22.50
2016,07,18,13,46,22.50
2016,07,18,13,47,22.50
2016,07,18,13,48,22.50
2016,07,18,13,49,22.40
2016,07,18,13,50,22.40
2016,07,18,13,51,22.30
2016,07,18,13,52,22.30
2016,07,18,13,53,22.20
2016,07,18,13,54,22.20
2016,07,18,13,55,22.20
2016,07,18,13,56,22.20
2016,07,18,13,57,22.20
2016,07,18,13,58,22.10
2016,07,18,13,59,22.10
2016,07,18,14,00,22.20
2016,07,18,14,01,22.20
2016,07,18,14,02,22.10
2016,07,18,14,03,22.10
2016,07,18,14,04,22.10
2016,07,18,14,05,22.10
2016,07,18,14,06,22.10
2016,07,18,14,07,22.00
2016,07,18,14,08,22.10
2016,07,18,14,09,22.10
2016,07,18,14,10,22.10
2016,07,18,14,11,22.10
2016,07,18,14,12,22.10
2016,07,18,14,13,22.00
2016,07,18,14,14,22.00
2016,07,18,14,15,21.90
2016,07,18,14,16,21.90
2016,07,18,14,17,21.90
2016,07,18,14,18,21.80
2016,07,18,14,19,21.80
2016,07,18,14,20,21.80
2016,07,18,14,21,21.70
2016,07,18,14,22,21.70
2016,07,18,14,23,21.70
2016,07,18,14,24,21.70
2016,07,18,14,25,21.80
2016,07,18,14,26,21.80
2016,07,18,14,27,21.80
2016,07,18,14,28,21.90
2016,07,18,14,29,21.90
2016,07,18,14,30,22.00
2016,07,18,14,31,22.00
2016,07,18,14,32,21.90
2016,07,18,14,33,21.80
2016,07,18,14,34,21.70
2016,07,18,14,35,21.70
2016,07,18,14,36,21.70
2016,07,18,14,37,21.60
2016,07,18,14,38,21.60
2016,07,18,14,39,21.60
2016,07,18,14,40,21.50
2016,07,18,14,41,21.40
2016,07,18,14,42,21.40
2016,07,18,14,43,21.30
2016,07,18,14,44,21.30
2016,07,18,14,45,21.20
2016,07,18,14,46,21.20
2016,07,18,14,47,21.20
2016,07,18,14,48,21.20
2016,07,18,14,49,21.20
2016,07,18,14,50,21.20
2016,07,18,14,51,21.20
2016,07,18,14,52,21.20
2016,07,18,14,53,21.20
2016,07,18,14,54,21.30
2016,07,18,14,55,21.30
2016,07,18,14,56,21.30
2016,07,18,14,57,21.40
2016,07,18,14,58,21.40
2016,07,18,14,59,21.40
2016,07,18,15,00,21.40
2016,07,18,15,01,21.40
2016,07,18,15,02,21.40
2016,07,18,15,03,21.40
2016,07,18,15,04,21.30
2016,07,18,15,05,21.30
2016,07,18,15,06,21.30
2016,07,18,15,07,21.20
2016,07,18,15,08,21.20
2016,07,18,15,09,21.20
2016,07,18,15,10,21.20
2016,07,18,15,11,21.20
2016,07,18,15,12,21.20
2016,07,18,15,13,21.20
2016,07,18,15,14,21.10
2016,07,18,15,15,21.10
2016,07,18,15,16,21.10
2016,07,18,15,17,21.10
2016,07,18,15,18,21.10
2016,07,18,15,19,21.10
2016,07,18,15,20,21.00
2016,07,18,15,21,21.00
2016,07,18,15,22,21.00
2016,07,18,15,23,21.00
2016,07,18,15,24,20.90
2016,07,18,15,25,20.90
2016,07,18,15,26,20.90
2016,07,18,15,27,20.90
2016,07,18,15,28,20.90
2016,07,18,15,29,20.90
2016,07,18,15,30,20.90
2016,07,18,15,31,20.90
2016,07,18,15,32,20.90
2016,07,18,15,33,20.90
2016,07,18,15,34,21.00
2016,07,18,15,35,20.90
2016,07,18,15,36,20.90
2016,07,18,15,37,20.90
2016,07,18,15,38,20.90
2016,07,18,15,39,20.90
2016,07,18,15,40,20.90
2016,07,18,15,41,20.90
2016,07,18,15,42,20.90
2016,07,18,15,43,20.90
2016,07,18,15,44,20.90
2016,07,18,15,45,20.90
2016,07,18,15,46,21.00
2016,07,18,15,47,21.00
2016,07,18,15,48,21.10
2016,07,18,15,49,21.10
2016,07,18,15,50,21.10
2016,07,18,15,51,21.10
2016,07,18,15,52,21.10
2016,07,18,15,53,21.10
2016,07,18,15,54,21.20
2016,07,18,15,55,21.20
2016,07,18,15,56,21.20
2016,07,18,15,57,21.20
2016,07,18,15,58,21.20
2016,07,18,15,59,21.20
2016,07,18,16,00,21.30
2016,07,18,16,01,21.20
2016,07,18,16,02,21.20
2016,07,18,16,03,21.20
2016,07,18,16,04,21.10
2016,07,18,16,05,21.10
2016,07,18,16,06,21.00
2016,07,18,16,07,21.00
2016,07,18,16,08,21.00
2016,07,18,16,09,21.00
2016,07,18,16,10,21.00
2016,07,18,16,11,21.00
2016,07,18,16,12,21.00
2016,07,18,16,13,20.90
2016,07,18,16,14,20.90
2016,07,18,16,15,20.90
2016,07,18,16,16,20.90
2016,07,18,16,17,20.80
2016,07,18,16,18,20.80
2016,07,18,16,19,20.80
2016,07,18,16,20,20.80
2016,07,18,16,21,20.80
2016,07,18,16,22,20.80
2016,07,18,16,23,20.90
2016,07,18,16,24,20.90
2016,07,18,16,25,20.90
2016,07,18,16,26,21.00
2016,07,18,16,27,21.00
2016,07,18,16,28,21.10
2016,07,18,16,29,21.10
2016,07,18,16,30,21.20
2016,07,18,16,31,21.30
2016,07,18,16,32,21.30
2016,07,18,16,33,21.40
2016,07,18,16,34,21.40
2016,07,18,16,35,21.40
2016,07,18,16,36,21.40
2016,07,18,16,37,21.40
2016,07,18,16,38,21.40
2016,07,18,16,39,21.40
2016,07,18,16,40,21.40
2016,07,18,16,41,21.40
2016,07,18,16,42,21.40
2016,07,18,16,43,21.30
2016,07,18,16,44,21.40
2016,07,18,16,45,21.40
2016,07,18,16,46,21.40
2016,07,18,16,47,21.40
2016,07,18,16,48,21.40
2016,07,18,16,49,21.40
2016,07,18,16,50,21.50
2016,07,18,16,51,21.50
2016,07,18,16,52,21.60
2016,07,18,16,53,21.70
2016,07,18,16,54,21.80
2016,07,18,16,55,21.90
2016,07,18,16,56,22.10
2016,07,18,16,57,22.20
2016,07,18,16,58,22.30
2016,07,18,16,59,22.40
2016,07,18,17,00,22.60
2016,07,18,17,01,22.60
2016,07,18,17,02,22.70
2016,07,18,17,03,22.70
2016,07,18,17,04,22.70
2016,07,18,17,05,22.70
2016,07,18,17,06,22.70
2016,07,18,17,07,22.80
2016,07,18,17,08,22.80
2016,07,18,17,09,22.90
2016,07,18,17,10,23.00
2016,07,18,17,11,23.10
2016,07,18,17,12,23.20
2016,07,18,17,13,23.30
2016,07,18,17,14,23.30
2016,07,18,17,15,23.40
2016,07,18,17,16,23.40
2016,07,18,17,17,23.40
2016,07,18,17,18,23.30
2016,07,18,17,19,23.30